Hourly Data Report for October 02, 2022

TORONTO CITY
ONTARIO
Current Station Operator: ECCC - MSC

43°40'00.000" N
79°24'00.000" W
112.50 m
6158355
71508
XTO

Download Data

Hourly Data (October 2022)
Hourly Data Report for October 2, 2022
TIME
LST
Temp Definition
°C
Dew Point Definition
°C
Rel Hum Definition
%
Precip. Amount Definition
mm

Wind Dir Definition
10's deg

Wind Spd Definition
km/h
Visibility Definition
km
Stn Press Definition
kPa
Hmdx Definition


Wind Chill Definition


Weather Definition


00:00 12.9 6.2 64 0.0       100.99     LegendNANA
01:00 11.9 4.9 62 0.0       100.97     LegendNANA
02:00 11.4 3.4 58 0.0       101.01     LegendNANA
03:00 10.9 2.5 56 0.0       101.06     LegendNANA
04:00 10.4 2.2 57 0.0       101.11     LegendNANA
05:00 9.7 1.7 58 0.0       101.18     LegendNANA
06:00 8.4 1.1 60 0.0       101.28     LegendNANA
07:00 7.7 0.8 61 0.0       101.34     LegendNANA
08:00 8.3 0.5 58 0.0       101.39     LegendNANA
09:00 9.4 0.4 53 0.0       101.41     LegendNANA
10:00 10.3 -0.3 48 0.0       101.44     LegendNANA
11:00 12.5 -1.2 39 0.0       101.46     LegendNANA
12:00 13.9 -1.3 35 0.0       101.43     LegendNANA
13:00 14.8 -1.0 34 0.0       101.41     LegendNANA
14:00 14.9 -1.8 32 0.0       101.33     LegendNANA
15:00 15.8 -0.6 32 0.0       101.30     LegendNANA
16:00 15.5 -2.1 30 0.0       101.32     LegendNANA
17:00 13.9 1.3 42 0.0       101.34     LegendNANA
18:00 12.8 1.2 45 0.0       101.39     LegendNANA
19:00 11.9 0.8 46 0.0       101.41     LegendNANA
20:00 11.2 1.2 50 0.0       101.46     LegendNANA
21:00 11.7 0.0 44 0.0       101.47     LegendNANA
22:00 10.7 0.3 49 0.0       101.50     LegendNANA
23:00 10.0 -0.1 49 0.0       101.54     LegendNANA

Notes on Data Quality.

Legend

  • E = Estimated
  • M = Missing
  • NA = Not Available*
  • [empty] = Indicates an unobserved value
Date modified: